"2009-05-31 00:00:00",933429,5.875,303,1.367,0.069,17.34,107.4609,18.38,19.37,32.11,0,110.8,13.24,19.19,265.0
"2009-05-31 00:00:30",933430,5.874,303,0.475,0.056,17.31,107.4612,18.38,19.4,32.09,0,110.8,13.24,19.19,265.0
"2009-05-31 00:01:00",933431,5.804,304,0.912,0.113,17.38,107.4612,18.38,19.39,32.07,0,110.8,13.24,19.19,266.0
"2009-05-31 00:01:30",933432,5.805,303,0.397,0.054,17.26,107.4612,18.38,19.38,32.02,0,110.8,13.24,19.19,265.0
"2009-05-31 00:02:00",933433,6.046,302.5,0.894,0.075,17.28,107.4609,18.38,19.38,31.97,0,110.8,13.24,19.19,264.5
"2009-05-31 00:02:30",933434,5.987,300.4,1.183,0.08,17.3,107.4609,18.38,19.38,31.9,0,110.8,13.24,19.19,262.4
"2009-05-31 00:03:00",933435,5.865,301.2,1.678,0.149,17.28,107.4612,18.38,19.39,31.89,0,110.8,13.24,19.19,263.2
"2009-05-31 00:03:30",933436,5.615,301.8,1.104,0.129,17.35,107.4612,18.38,19.4,31.9,0,110.8,13.24,19.19,263.8
"2009-05-31 00:04:00",933437,5.801,302.6,0.78,0.148,17.32,107.4612,18.38,19.39,31.96,0,110.8,13.23,19.19,264.6
"2009-05-31 00:04:30",933438,5.794,303.2,1.322,0.062,17.34,107.4612,18.38,19.4,31.91,0,110.8,13.23,19.19,265.2
"2009-05-31 00:05:00",933439,5.695,305.3,0.945,0.1,17.47,107.4612,18.38,19.4,31.9,0,110.8,13.23,19.19,267.3
"2009-05-31 00:05:30",933440,5.722,306.1,1.226,0.185,17.39,107.4612,18.38,19.4,31.81,0,110.8,13.23,19.19,268.1
"2009-05-31 00:06:00",933441,5.724,307.1,1.48,0.198,17.35,107.4612,18.38,19.41,31.78,0,110.8,13.23,19.19,269.1
"2009-05-31 00:06:30",933442,5.585,305.9,0.656,0.064,17.47,107.4612,18.38,19.41,31.8,0,110.7,13.23,19.19,267.9
"2009-05-31 00:07:00",933443,5.492,306.7,1.508,0.098,17.38,107.4624,18.38,19.41,31.75,0,110.8,13.23,19.20,268.7
"2009-05-31 00:07:30",933444,5.243,307.4,1.129,0.062,17.37,107.4618,18.38,19.41,31.79,0,110.8,13.23,19.20,269.4
"2009-05-31 00:08:00",933445,5.357,308.1,1.747,0.196,17.32,107.4621,18.38,19.43,31.81,0,110.7,13.23,19.20,270.1
"2009-05-31 00:08:30",933446,5.285,312.2,1.255,0.164,17.37,107.4621,18.38,19.43,31.8,0,110.8,13.24,19.20,274.2
"2009-05-31 00:09:00",933447,5.25,313.2,1.764,0.145,17.37,107.4634,18.38,19.44,31.94,0,110.8,13.24,19.20,275.2
"2009-05-31 00:09:30",933448,5.049,309.6,1.308,0.158,17.35,107.4733,18.41,19.45,32.16,0,110.8,13.24,19.22,271.6
"2009-05-31 00:10:00",933449,5.082,309,1.162,0.095,17.27,107.4886,18.45,19.44,31.99,0,110.8,13.24,19.26,271.0
"2009-05-31 00:10:30",933450,5.186,309.5,1.067,0.123,17.26,107.497,18.47,19.46,31.77,0,110.8,13.25,19.29,271.5
"2009-05-31 00:11:00",933451,5.094,308.7,1.449,0.14,17.23,107.4952,18.46,19.47,31.53,0,110.8,13.25,19.28,270.7
"2009-05-31 00:11:30",933452,5.009,308.5,1.611,0.16,17.27,107.4958,18.47,19.47,31.49,0,110.8,13.25,19.28,270.5
"2009-05-31 00:12:00",933453,4.98,308.7,1.956,0.126,17.23,107.4973,18.47,19.49,31.53,0,110.8,13.25,19.29,270.7
"2009-05-31 00:12:30",933454,5.073,307.3,2.41,0.113,17.2,107.4976,18.47,19.51,31.47,0,110.8,13.25,19.29,269.3
"2009-05-31 00:13:00",933455,5.085,306.6,1.545,0.132,17.12,107.5045,18.49,19.51,31.41,0,110.8,13.25,19.31,268.6
"2009-05-31 00:13:30",933456,5.244,301.8,1.486,0.106,17.19,107.5152,18.52,19.52,31.32,0,110.8,13.25,19.33,263.8
"2009-05-31 00:14:00",933457,5.253,301.6,0.946,0.118,17.19,107.5296,18.55,19.53,31.29,0,110.8,13.25,19.37,263.6
"2009-05-31 00:14:30",933458,5.477,300.9,1.754,0.235,17.12,107.5293,18.55,19.55,31.15,0,110.8,13.25,19.37,262.9
"2009-05-31 00:15:00",933459,5.566,303.3,1.929,0.171,17.12,107.529,18.55,19.57,31.13,0,110.8,13.25,19.37,265.3
"2009-05-31 00:15:30",933460,5.703,299.6,1.178,0.093,17.19,107.5287,18.55,19.57,30.99,0,110.8,13.25,19.37,261.6
"2009-05-31 00:16:00",933461,5.498,301.9,1.473,0.111,17.12,107.5321,18.56,19.58,30.79,0,110.8,13.25,19.38,263.9
"2009-05-31 00:16:30",933462,5.444,301.8,1.987,0.125,17.19,107.5481,18.6,19.59,30.86,0,110.8,13.25,19.42,263.8
"2009-05-31 00:17:00",933463,5.501,300.1,4.858,0.189,17.09,107.5575,18.62,19.6,30.94,0,110.8,13.25,19.44,262.1
"2009-05-31 00:17:30",933464,5.687,296.7,1.419,0.138,17.1,107.5634,18.64,19.62,30.78,0,110.8,13.25,19.46,258.7
"2009-05-31 00:18:00",933465,5.78,298.7,1.667,0.151,17.08,107.5631,18.64,19.63,30.57,0,110.8,13.25,19.46,260.7
"2009-05-31 00:18:30",933466,5.464,297.7,2.127,0.104,17.06,107.564,18.64,19.64,30.68,0,110.8,13.24,19.46,259.7
"2009-05-31 00:19:00",933467,5.498,299.7,2.023,0.166,17.06,107.5639,18.64,19.66,30.67,0,110.8,13.25,19.46,261.7
"2009-05-31 00:19:30",933468,5.589,300.2,1.731,0.182,17.01,107.5675,18.65,19.67,30.73,0,110.8,13.25,19.47,262.2
"2009-05-31 00:20:00",933469,5.272,302.4,3.276,0.15,17.04,107.5793,18.68,19.68,30.78,0,110.8,13.24,19.50,264.4
"2009-05-31 00:20:30",933470,5.782,298.9,1.805,0.119,16.96,107.5951,18.72,19.69,30.68,0,110.8,13.24,19.54,260.9
"2009-05-31 00:21:00",933471,5.973,296.3,1.175,0.073,16.9,107.5962,18.72,19.71,30.62,0,110.8,13.24,19.54,258.3
"2009-05-31 00:21:30",933472,5.641,296.7,1.581,0.134,16.87,107.5962,18.72,19.73,30.6,0,110.8,13.23,19.54,258.7
"2009-05-31 00:22:00",933473,5.6,297.8,1.915,0.136,16.85,107.6007,18.74,19.73,30.68,0,110.8,13.23,19.55,259.8
"2009-05-31 00:22:30",933474,5.338,300.6,2.891,0.155,16.81,107.6187,18.78,19.76,30.67,0,110.8,13.23,19.60,262.6
"2009-05-31 00:23:00",933475,5.172,301.1,1.382,0.079,16.82,107.6289,18.81,19.77,30.71,0,110.8,13.23,19.63,263.1
"2009-05-31 00:23:30",933476,5.158,299.4,1.8,0.107,16.84,107.63,18.81,19.78,30.72,0,110.8,13.23,19.63,261.4
"2009-05-31 00:24:00",933477,5.521,295.1,1.779,0.264,16.79,107.6317,18.81,19.79,30.7,0,110.8,13.23,19.63,257.1
"2009-05-31 00:24:30",933478,5.395,296.4,1.742,0.22,16.76,107.644,18.85,19.81,30.68,0,110.8,13.23,19.66,258.4
"2009-05-31 00:25:00",933479,5.175,300.2,2.703,0.136,16.81,107.6635,18.9,19.84,30.73,0,110.8,13.23,19.71,262.2
"2009-05-31 00:25:30",933480,5.22,300,1.634,0.119,16.74,107.6637,18.9,19.87,30.7,0,110.8,13.23,19.71,262.0
"2009-05-31 00:26:00",933481,5.058,300.1,2.559,0.169,16.73,107.6685,18.91,19.89,30.66,0,110.8,13.23,19.73,262.1
"2009-05-31 00:26:30",933482,4.771,301.8,2.253,0.156,16.77,107.6857,18.95,19.9,30.62,0,110.8,13.24,19.77,263.8
"2009-05-31 00:27:00",933483,4.877,303.3,2.522,0.101,16.79,107.6972,18.98,19.92,30.64,0,110.8,13.24,19.80,265.3
"2009-05-31 00:27:30",933484,4.982,304.4,0.754,0.104,16.85,107.6975,18.98,19.94,30.53,0,110.8,13.24,19.80,266.4
"2009-05-31 00:28:00",933485,4.817,303.9,0.99,0.062,16.86,107.7147,19.03,19.96,30.41,0,110.8,13.24,19.85,265.9
"2009-05-31 00:28:30",933486,4.77,304.1,1.117,0.058,16.84,107.7313,19.07,19.99,30.29,0,110.8,13.23,19.89,266.1
"2009-05-31 00:29:00",933487,4.626,306,0.97,0.14,16.83,107.7297,19.07,20,30.23,0,110.8,13.23,19.88,268.0
"2009-05-31 00:29:30",933488,4.69,307.9,1.477,0.097,16.83,107.7369,19.08,20.04,30.3,0,110.8,13.23,19.90,269.9
"2009-05-31 00:30:00",933489,4.548,305.5,2.007,0.067,16.77,107.7575,19.14,20.06,30.33,0,110.8,13.23,19.96,267.5
"2009-05-31 00:30:30",933490,4.589,303.7,1.029,0.107,16.74,107.7565,19.14,20.07,30.18,0,110.8,13.23,19.95,265.7
"2009-05-31 00:31:00",933491,4.597,300.7,2.477,0.164,16.77,107.7593,19.14,20.11,30.14,0,110.8,13.23,19.96,262.7
"2009-05-31 00:31:30",933492,4.656,299.9,0.96,0.112,16.78,107.7809,19.2,20.13,30.11,0,110.8,13.23,20.02,261.9
"2009-05-31 00:32:00",933493,4.51,301.1,0.673,0.077,16.77,107.787,19.21,20.14,30.01,0,110.8,13.23,20.03,263.1
"2009-05-31 00:32:30",933494,4.564,301.5,1.614,0.203,16.76,107.78,19.2,20.16,29.99,0,110.8,13.23,20.01,263.5
"2009-05-31 00:33:00",933495,4.69,299.4,1.689,0.171,16.78,107.7892,19.22,20.19,29.96,0,110.8,13.23,20.04,261.4
"2009-05-31 00:33:30",933496,4.572,302,1.585,0.198,16.7,107.8019,19.25,20.21,29.96,0,110.8,13.23,20.07,264.0
"2009-05-31 00:34:00",933497,4.537,298.5,2.142,0.177,16.74,107.7977,19.24,20.24,29.95,0,110.8,13.23,20.06,260.5
"2009-05-31 00:34:30",933498,4.534,302.2,2.389,0.13,16.84,107.7982,19.24,20.25,29.9,0,110.8,13.23,20.06,264.2
"2009-05-31 00:35:00",933499,4.221,303.4,0.679,0.109,16.89,107.815,19.29,20.27,30.14,0,110.8,13.23,20.10,265.4
"2009-05-31 00:35:30",933500,4.102,303.3,1.478,0.084,16.89,107.8299,19.32,20.29,30.39,0,110.8,13.23,20.14,265.3
"2009-05-31 00:36:00",933501,4.198,300.9,1.582,0.069,16.81,107.8299,19.32,20.31,30.23,0,110.9,13.23,20.14,262.9
"2009-05-31 00:36:30",933502,4.19,300.3,3.431,0.12,16.82,107.831,19.33,20.34,30.07,0,110.9,13.23,20.15,262.3
"2009-05-31 00:37:00",933503,4.108,303.9,2.935,0.119,16.87,107.8473,19.37,20.35,30.08,0,110.9,13.23,20.19,265.9
"2009-05-31 00:37:30",933504,4.238,300.1,1.69,0.099,16.81,107.8603,19.4,20.38,30.03,0,110.9,13.22,20.22,262.1
"2009-05-31 00:38:00",933505,4.151,304.7,1.671,0.197,16.89,107.8636,19.41,20.39,29.95,0,110.9,13.22,20.23,266.7
"2009-05-31 00:38:30",933506,4.207,299.5,2.605,0.153,16.89,107.8636,19.41,20.4,29.91,0,110.9,13.22,20.23,261.5
"2009-05-31 00:39:00",933507,4.115,296.9,2.893,0.139,16.91,107.8651,19.41,20.42,29.96,0,110.9,13.22,20.23,258.9
"2009-05-31 00:39:30",933508,4.394,294.9,1.672,0.1,16.91,107.8791,19.45,20.44,30.02,0,110.9,13.22,20.27,256.9
"2009-05-31 00:40:00",933509,4.462,294.6,0.618,0.083,16.8,107.8963,19.49,20.44,30.07,0,110.9,13.22,20.31,256.6
"2009-05-31 00:40:30",933510,4.42,295.4,1.716,0.09,16.9,107.8974,19.5,20.47,30.03,0,110.9,13.22,20.32,257.4
"2009-05-31 00:41:00",933511,4.445,294.9,1.644,0.042,16.89,107.8974,19.5,20.48,30,0,110.9,13.22,20.32,256.9
"2009-05-31 00:41:30",933512,4.393,292.1,0.608,0.054,16.92,107.8974,19.5,20.49,30.18,0,110.9,13.22,20.32,254.1
"2009-05-31 00:42:00",933513,4.368,292.5,0.834,0.048,16.92,107.903,19.51,20.5,30.15,0,110.9,13.22,20.33,254.5
"2009-05-31 00:42:30",933514,4.286,293,0.845,0.078,16.89,107.9132,19.54,20.52,30.05,0,110.9,13.22,20.36,255.0
"2009-05-31 00:43:00",933515,4.086,293.9,1.243,0.067,16.86,107.9281,19.58,20.53,30.04,0,110.9,13.22,20.40,255.9
"2009-05-31 00:43:30",933516,4.101,293.3,1.163,0.041,16.83,107.9312,19.58,20.54,29.76,0,110.9,13.22,20.40,255.3
"2009-05-31 00:44:00",933517,4.07,291.8,0.641,0.023,16.79,107.9312,19.58,20.56,29.42,0,110.9,13.22,20.40,253.8
"2009-05-31 00:44:30",933518,4.042,291.2,0.375,0.034,16.79,107.9305,19.58,20.58,29.47,0,110.9,13.22,20.40,253.2
"2009-05-31 00:45:00",933519,4.102,291.1,0.448,0.078,16.74,107.9305,19.58,20.58,29.38,0,110.9,13.22,20.40,253.1
"2009-05-31 00:45:30",933520,3.988,290.4,0.331,0.045,16.79,107.9321,19.59,20.59,29.73,0,110.9,13.22,20.41,252.4
"2009-05-31 00:46:00",933521,3.83,290.3,0.134,0.048,16.89,107.9413,19.61,20.59,29.59,0,110.9,13.22,20.43,252.3
"2009-05-31 00:46:30",933522,3.724,290.5,0.579,0.056,16.88,107.9501,19.63,20.6,29.46,0,110.9,13.22,20.45,252.5
"2009-05-31 00:47:00",933523,3.599,290,0.566,0.042,16.88,107.9571,19.65,20.61,29.36,0,110.9,13.22,20.47,252.0
"2009-05-31 00:47:30",933524,3.591,289.3,0.723,0.071,16.91,107.957,19.65,20.61,29.09,0,110.9,13.22,20.47,251.3
"2009-05-31 00:48:00",933525,3.594,288.3,0.536,0.067,16.88,107.9561,19.65,20.63,29.25,0,110.9,13.22,20.47,250.3
"2009-05-31 00:48:30",933526,3.657,289.7,0.406,0.048,16.87,107.9552,19.64,20.63,29.51,0,110.9,13.22,20.47,251.7
"2009-05-31 00:49:00",933527,3.721,290.3,0.701,0.115,16.86,107.9509,19.63,20.63,29.4,0,110.9,13.22,20.45,252.3
"2009-05-31 00:49:30",933528,3.602,288.8,1.336,0.094,16.88,107.9485,19.63,20.64,29.05,0,110.9,13.21,20.45,250.8
"2009-05-31 00:50:00",933529,3.386,287.8,0.709,0.04,16.82,107.9467,19.62,20.65,28.68,0,110.9,13.21,20.44,249.8
"2009-05-31 00:50:30",933530,3.31,287.7,2.253,0.043,16.83,107.9445,19.62,20.65,28.09,0,110.9,13.22,20.44,249.7
"2009-05-31 00:51:00",933531,3.226,282.4,0.954,0.057,16.78,107.9454,19.62,20.66,28.1,0,110.9,13.21,20.44,244.4
"2009-05-31 00:51:30",933532,3.334,281.8,0.814,0.114,16.74,107.9443,19.62,20.66,28.17,0,110.9,13.21,20.44,243.8
"2009-05-31 00:52:00",933533,3.716,278.1,1.285,0.199,16.73,107.9455,19.62,20.66,28.23,0,110.9,13.21,20.44,240.1
"2009-05-31 00:52:30",933534,3.985,274.8,2.498,0.123,16.68,107.9545,19.64,20.67,27.96,0,110.9,13.21,20.46,236.8
"2009-05-31 00:53:00",933535,3.944,273.5,1.533,0.111,16.69,107.9584,19.65,20.67,27.57,0,110.9,13.21,20.47,235.5
"2009-05-31 00:53:30",933536,3.493,271.4,2.053,0.261,16.53,107.9415,19.61,20.66,27.79,0,110.9,13.21,20.43,233.4
"2009-05-31 00:54:00",933537,3.441,267.8,2.837,0.168,16.51,107.918,19.55,20.63,27.92,0,110.9,13.21,20.37,229.8
"2009-05-31 00:54:30",933538,3.784,262.6,1.562,0.145,16.34,107.8756,19.44,20.57,28.83,0,110.9,13.21,20.26,224.6
"2009-05-31 00:55:00",933539,3.698,256.2,9.26,0.266,16.2,107.8026,19.25,20.45,30.66,0,110.9,13.21,20.07,218.2
"2009-05-31 00:55:30",933540,3.311,246.3,8.87,0.447,16.14,107.7191,19.04,20.31,33.23,0,110.9,13.21,19.86,208.3
"2009-05-31 00:56:00",933541,1.469,264.2,12.16,0.56,16.09,107.6296,18.81,20.16,34.9,0,110.9,13.21,19.63,226.2
"2009-05-31 00:56:30",933542,1.216,217.8,22.96,0.407,15.88,107.5737,18.67,20.04,37.25,0,110.9,13.21,19.48,179.8
"2009-05-31 00:57:00",933543,3.698,159.9,13.02,1.345,15.54,107.5284,18.55,19.92,37.35,0,110.9,13.21,19.37,121.9
"2009-05-31 00:57:30",933544,5.257,184.7,8.35,0.72,15.69,107.5183,18.52,19.83,37.57,0,110.9,13.21,19.34,146.7
"2009-05-31 00:58:00",933545,3.38,172.3,7.215,0.845,15.94,107.518,18.52,19.78,37.62,0,110.9,13.21,19.34,134.3
"2009-05-31 00:58:30",933546,3.512,176.9,11.95,0.359,16.11,107.5006,18.48,19.72,37.52,0,110.9,13.21,19.30,138.9
"2009-05-31 00:59:00",933547,3.692,183.3,8.58,0.396,16.27,107.5034,18.49,19.71,37.4,0,110.9,13.21,19.30,145.3
"2009-05-31 00:59:30",933548,5.721,178,5.023,0.456,15.98,107.5143,18.51,19.68,37.53,0,110.9,13.21,19.33,140.0
"2009-05-31 01:00:00",933549,6.658,202.2,6.24,0.741,16.02,107.5014,18.48,19.66,37.48,0,110.9,13.21,19.30,164.2
"2009-05-31 01:00:30",933550,7.938,194.6,5.351,0.549,16.12,107.4963,18.47,19.65,37.66,0,110.9,13.21,19.28,156.6
"2009-05-31 01:01:00",933551,7.309,196.1,4.692,0.466,16.1,107.4904,18.45,19.62,37.56,0,110.9,13.21,19.27,158.1
"2009-05-31 01:01:30",933552,7.914,188,3.936,0.998,16.14,107.4899,18.45,19.62,37.13,0,110.9,13.21,19.27,150.0
"2009-05-31 01:02:00",933553,7.019,196.4,7.773,0.821,16.12,107.4899,18.45,19.58,36.92,0,110.9,13.21,19.27,158.4
"2009-05-31 01:02:30",933554,7.704,191.8,5.271,0.241,16.18,107.4848,18.44,19.57,36.79,0,110.9,13.21,19.25,153.8
"2009-05-31 01:03:00",933555,7.702,197.5,2.041,0.257,15.97,107.4632,18.38,19.55,36.88,0,110.9,13.21,19.20,159.5
"2009-05-31 01:03:30",933556,7.762,195.7,3.338,0.266,15.97,107.4561,18.36,19.52,37.14,0,110.9,13.21,19.18,157.7
"2009-05-31 01:04:00",933557,7.437,193.1,3.007,0.359,15.96,107.4508,18.35,19.49,37.35,0,110.9,13.21,19.17,155.1
"2009-05-31 01:04:30",933558,7.419,193.3,2.598,0.155,16.07,107.4258,18.29,19.47,37.41,0,110.9,13.21,19.10,155.3
"2009-05-31 01:05:00",933559,7.99,191.1,2.371,0.238,16.33,107.4224,18.28,19.42,37.21,0,110.9,13.21,19.09,153.1
"2009-05-31 01:05:30",933560,7.024,188.9,3.827,0.663,16.43,107.4126,18.25,19.4,36.92,0,110.9,13.21,19.07,150.9
"2009-05-31 01:06:00",933561,6.659,184.7,2.817,0.446,16.39,107.3895,18.19,19.36,36.8,0,110.9,13.21,19.01,146.7
"2009-05-31 01:06:30",933562,6.719,182.5,6.446,0.39,16.32,107.3878,18.19,19.33,36.96,0,110.9,13.21,19.00,144.5
"2009-05-31 01:07:00",933563,7.858,189.4,2.061,0.276,16.43,107.3662,18.13,19.29,36.73,0,110.9,13.21,18.95,151.4
"2009-05-31 01:07:30",933564,8.23,195.7,2.537,0.356,16.29,107.3555,18.11,19.27,36.89,0,110.9,13.22,18.92,157.7
"2009-05-31 01:08:00",933565,6.723,196.8,3.188,0.849,16.3,107.3561,18.11,19.24,37.37,0,110.9,13.22,18.92,158.8
"2009-05-31 01:08:30",933566,6.097,185.8,6.744,0.446,16.43,107.3455,18.08,19.22,36.74,0,110.9,13.22,18.90,147.8
"2009-05-31 01:09:00",933567,6.84,186.4,2.585,0.227,16.57,107.3232,18.02,19.19,36.29,0,110.9,13.22,18.84,148.4
"2009-05-31 01:09:30",933568,6.171,182.8,5.55,0.428,16.57,107.326,18.03,19.16,36.2,0,110.9,13.22,18.85,144.8
"2009-05-31 01:10:00",933569,5.372,187.7,2.516,0.175,16.56,107.3208,18.02,19.13,36.3,0,110.9,13.22,18.83,149.7
"2009-05-31 01:10:30",933570,4.855,181.8,9.8,0.638,16.56,107.3054,17.98,19.12,35.96,0,110.9,13.22,18.79,143.8
"2009-05-31 01:11:00",933571,3.102,204.9,7.457,0.418,16.4,107.2959,17.95,19.09,36.21,0,110.9,13.21,18.77,166.9
"2009-05-31 01:11:30",933572,4.814,206.4,6.724,0.373,16.49,107.292,17.94,19.09,36.25,0,110.9,13.21,18.76,168.4
"2009-05-31 01:12:00",933573,5.08,197.2,6.963,0.447,16.79,107.2926,17.95,19.05,35.08,0,110.8,13.21,18.76,159.2
"2009-05-31 01:12:30",933574,5.238,192.4,9.07,0.399,16.67,107.292,17.94,19.04,34.76,0,110.8,13.21,18.76,154.4
"2009-05-31 01:13:00",933575,4.526,198.9,8.07,0.377,16.44,107.2938,17.95,19.03,35.64,0,110.8,13.21,18.76,160.9
"2009-05-31 01:13:30",933576,4.353,201.1,12.32,0.507,16.44,107.2903,17.94,19,35.93,0,110.8,13.21,18.75,163.1
"2009-05-31 01:14:00",933577,4.995,211.8,5.37,0.532,16.39,107.2927,17.95,19.01,36.05,0,110.8,13.21,18.76,173.8
"2009-05-31 01:14:30",933578,4.303,202.4,3.341,0.313,16.48,107.2948,17.95,19,36.02,0,110.8,13.21,18.77,164.4
"2009-05-31 01:15:00",933579,3.928,205.9,6.884,0.453,16.46,107.2971,17.96,18.99,35.56,0,110.8,13.21,18.77,167.9
"2009-05-31 01:15:30",933580,5.143,216.4,3.033,0.384,16.43,107.298,17.96,18.99,35.86,0,110.8,13.21,18.77,178.4
"2009-05-31 01:16:00",933581,4.254,199.9,5.183,0.309,16.63,107.3007,17.97,19,35.43,0,110.8,13.21,18.78,161.9
"2009-05-31 01:16:30",933582,5.046,201.4,3.954,0.247,16.52,107.2992,17.96,19,35.37,0,110.8,13.22,18.78,163.4
"2009-05-31 01:17:00",933583,4.042,214.3,5.021,0.367,16.55,107.3025,17.97,18.99,35.5,0,110.8,13.22,18.79,176.3
"2009-05-31 01:17:30",933584,4.025,212,1.481,0.154,16.45,107.3049,17.98,19.01,35.54,0,110.8,13.22,18.79,174.0
"2009-05-31 01:18:00",933585,3.296,203.7,6.053,0.192,16.52,107.3019,17.97,19,35.61,0,110.8,13.22,18.78,165.7
"2009-05-31 01:18:30",933586,3.205,211,2.384,0.155,16.38,107.3068,17.98,19.01,35.62,0,110.8,13.22,18.80,173.0
"2009-05-31 01:19:00",933587,3.153,213.1,5.363,0.29,16.43,107.3124,18,19.01,35.65,0,110.8,13.22,18.81,175.1
"2009-05-31 01:19:30",933588,3.395,211.1,4.328,0.288,16.37,107.3266,18.03,19.03,35.85,0,110.8,13.22,18.85,173.1
"2009-05-31 01:20:00",933589,3.481,207,7.955,0.19,16.59,107.3367,18.06,19.04,35.5,0,110.8,13.22,18.87,169.0
"2009-05-31 01:20:30",933590,3.905,211,3.962,0.297,16.62,107.3396,18.07,19.04,35.28,0,110.8,13.22,18.88,173.0
"2009-05-31 01:21:00",933591,4.462,214.9,4.399,0.178,16.6,107.3396,18.07,19.06,35.38,0,110.8,13.22,18.88,176.9
"2009-05-31 01:21:30",933592,3.97,235.7,7.709,0.311,17.08,107.3447,18.08,19.06,34.15,0,110.8,13.22,18.89,197.7
"2009-05-31 01:22:00",933593,2.979,230.8,4.913,0.342,16.82,107.3444,18.08,19.07,33.48,0,110.8,13.22,18.89,192.8
"2009-05-31 01:22:30",933594,3.425,226.2,2.749,0.175,16.63,107.3507,18.09,19.07,34.38,0,110.8,13.22,18.91,188.2
"2009-05-31 01:23:00",933595,3.842,226.7,1.346,0.297,16.69,107.3667,18.14,19.08,34.74,0,110.8,13.22,18.95,188.7
"2009-05-31 01:23:30",933596,3.447,226.4,3.598,0.234,16.74,107.3722,18.15,19.1,34.6,0,110.8,13.22,18.96,188.4
"2009-05-31 01:24:00",933597,3.247,220.1,4.615,0.272,16.63,107.3742,18.15,19.12,34.61,0,110.8,13.22,18.97,182.1
"2009-05-31 01:24:30",933598,4.074,209,3.122,0.266,16.51,107.3785,18.17,19.14,34.99,0,110.8,13.22,18.98,171.0
"2009-05-31 01:25:00",933599,3.355,218.4,4.657,0.171,16.71,107.377,18.16,19.14,34.96,0,110.8,13.22,18.98,180.4
"2009-05-31 01:25:30",933600,3.413,220.8,3.389,0.117,16.94,107.3834,18.18,19.17,34.28,0,110.8,13.22,18.99,182.8
"2009-05-31 01:26:00",933601,3.42,221.8,3.124,0.181,17.01,107.4008,18.22,19.17,33.97,0,110.8,13.22,19.04,183.8
"2009-05-31 01:26:30",933602,3.69,226.9,3.776,0.176,16.99,107.4117,18.25,19.18,34.36,0,110.8,13.22,19.07,188.9
"2009-05-31 01:27:00",933603,4.093,233.5,6.716,0.326,17.16,107.4128,18.25,19.2,34.11,0,110.8,13.22,19.07,195.5
"2009-05-31 01:27:30",933604,4.033,233.8,5.595,0.399,17.19,107.4158,18.26,19.22,33.83,0,110.8,13.22,19.08,195.8
"2009-05-31 01:28:00",933605,4.143,238.4,4.911,0.217,17.26,107.4176,18.27,19.22,33.75,0,110.8,13.22,19.08,200.4
"2009-05-31 01:28:30",933606,4.387,235.4,6.595,0.454,17.24,107.4183,18.27,19.22,33.87,0,110.8,13.22,19.08,197.4
"2009-05-31 01:29:00",933607,4.394,248.6,4.184,0.18,17.26,107.4204,18.27,19.23,33.87,0,110.8,13.22,19.09,210.6
"2009-05-31 01:29:30",933608,4.283,244.2,3.796,0.313,17.31,107.4216,18.28,19.25,33.86,0,110.8,13.21,19.09,206.2
"2009-05-31 01:30:00",933609,3.941,232.7,6.594,0.514,17.15,107.4234,18.28,19.25,34.16,0,110.8,13.21,19.10,194.7
"2009-05-31 01:30:30",933610,3.91,236.4,4.639,0.281,17.19,107.424,18.28,19.26,34.32,0,110.8,13.21,19.10,198.4
"2009-05-31 01:31:00",933611,4.051,231.8,2.905,0.179,17.22,107.4246,18.28,19.24,34.45,0,110.8,13.21,19.10,193.8
"2009-05-31 01:31:30",933612,4.378,233.7,3.264,0.262,17.28,107.4246,18.28,19.24,34.47,0,110.8,13.22,19.10,195.7
"2009-05-31 01:32:00",933613,4.04,240.7,4.742,0.367,17.28,107.4246,18.28,19.26,34.5,0,110.8,13.22,19.10,202.7
"2009-05-31 01:32:30",933614,4.007,237.7,7.303,0.282,17.2,107.4243,18.28,19.23,34.53,0,110.8,13.22,19.10,199.7
"2009-05-31 01:33:00",933615,4.288,233.9,1.737,0.213,17.28,107.4125,18.25,19.24,34.34,0,110.8,13.22,19.07,195.9
"2009-05-31 01:33:30",933616,4.377,243.8,3.136,0.297,17.38,107.3999,18.22,19.24,33.86,0,110.8,13.22,19.04,205.8
"2009-05-31 01:34:00",933617,3.971,231,5.084,0.311,17.22,107.3923,18.2,19.23,34.04,0,110.8,13.22,19.02,193.0
"2009-05-31 01:34:30",933618,4.577,228.4,1.7,0.157,17.21,107.3912,18.2,19.24,34.45,0,110.8,13.22,19.01,190.4
"2009-05-31 01:35:00",933619,4.538,235.1,2.836,0.221,17.35,107.3912,18.2,19.22,34.42,0,110.8,13.22,19.01,197.1
"2009-05-31 01:35:30",933620,4.642,230.9,1.973,0.082,17.37,107.3909,18.2,19.2,34.45,0,110.8,13.23,19.01,192.9
"2009-05-31 01:36:00",933621,4.627,234,0.813,0.134,17.37,107.3869,18.19,19.2,34.52,0,110.8,13.23,19.00,196.0
"2009-05-31 01:36:30",933622,4.833,234.1,1.009,0.121,17.26,107.3684,18.14,19.17,34.53,0,110.8,13.23,18.96,196.1
"2009-05-31 01:37:00",933623,4.956,236.5,2.48,0.181,17.38,107.3599,18.12,19.17,34.54,0,110.8,13.23,18.93,198.5
"2009-05-31 01:37:30",933624,4.823,234.8,5.472,0.233,17.31,107.3574,18.11,19.16,34.49,0,110.8,13.23,18.93,196.8
"2009-05-31 01:38:00",933625,5.268,229.5,1.42,0.22,17.28,107.3574,18.11,19.15,34.3,0,110.8,13.23,18.93,191.5
"2009-05-31 01:38:30",933626,5.817,235.5,3.764,0.251,17.23,107.356,18.11,19.13,34.45,0,110.8,13.23,18.92,197.5
"2009-05-31 01:39:00",933627,5.495,232.4,3.421,0.212,17.14,107.338,18.06,19.12,34.63,0,110.8,13.23,18.88,194.4
"2009-05-31 01:39:30",933628,5.766,236.9,2.537,0.158,17.27,107.3262,18.03,19.11,34.65,0,110.8,13.23,18.85,198.9
"2009-05-31 01:40:00",933629,5.608,239.6,2.01,0.176,17.41,107.324,18.03,19.09,34.07,0,110.8,13.23,18.84,201.6
"2009-05-31 01:40:30",933630,5.307,237.5,4.106,0.181,17.24,107.3228,18.02,19.07,34.24,0,110.7,13.23,18.84,199.5
"2009-05-31 01:41:00",933631,5.191,236.9,2.763,0.117,17.31,107.3167,18.01,19.07,34.46,0,110.7,13.23,18.82,198.9
"2009-05-31 01:41:30",933632,4.793,234,3.349,0.126,17.12,107.3016,17.97,19.04,34.74,0,110.7,13.24,18.78,196.0
"2009-05-31 01:42:00",933633,5.182,233.5,1.853,0.128,17.33,107.3011,17.97,19.02,34.59,0,110.7,13.24,18.78,195.5
"2009-05-31 01:42:30",933634,5.046,232,2.404,0.181,17.26,107.3095,17.99,19.01,34.62,0,110.7,13.24,18.80,194.0
"2009-05-31 01:43:00",933635,4.871,229.3,2.091,0.193,17.2,107.3091,17.99,18.99,35.07,0,110.7,13.24,18.80,191.3
"2009-05-31 01:43:30",933636,5.022,230.1,2.244,0.16,17.19,107.2959,17.95,18.99,35.15,0,110.7,13.24,18.77,192.1
"2009-05-31 01:44:00",933637,5.071,230.3,6.771,0.394,17.19,107.2842,17.92,18.98,35.08,0,110.7,13.24,18.74,192.3
"2009-05-31 01:44:30",933638,5.911,226.2,2.074,0.31,17.16,107.2845,17.92,18.95,35.31,0,110.7,13.24,18.74,188.2
"2009-05-31 01:45:00",933639,6.067,226.2,2.225,0.138,17.19,107.2845,17.92,18.94,35.15,0,110.7,13.24,18.74,188.2
"2009-05-31 01:45:30",933640,6.01,228.9,1.423,0.166,17.14,107.2806,17.91,18.93,35.16,0,110.7,13.23,18.73,190.9
"2009-05-31 01:46:00",933641,5.814,236.2,3.177,0.122,17.31,107.2627,17.87,18.91,35.32,0,110.7,13.24,18.68,198.2
"2009-05-31 01:46:30",933642,5.905,233.4,2.54,0.167,17.38,107.2586,17.86,18.88,34.73,0,110.7,13.23,18.67,195.4
"2009-05-31 01:47:00",933643,5.343,229.9,3.721,0.216,17.39,107.2586,17.86,18.86,34.52,0,110.7,13.23,18.67,191.9
"2009-05-31 01:47:30",933644,5.099,236.5,1.658,0.155,17.37,107.2547,17.85,18.86,34.37,0,110.7,13.23,18.66,198.5